map of DAR home
DAR - Airport
Location
City:  Dar es Salaam, Dar es Salaam, Tanzania
Name:Julius Nyerere International Airport
Old (Alt.):Mwalimu Julius Kambarage Nyerere International Airport
ICAO:HTDA
IATA:DAR

Details
Type:Airport (Aerodrome, Airfield)
Use:Public/Civil, International (customs port of entry)
Latitude:652'41"S (-6.878110)
Longitude:3912'09"E (39.202625)
Datum:WGS 1984
Elevation:182 ft (55 m)
Variation:2.13W (WMM2015 magnetic declination)
0.00 annual change
Runways:2
Longest:9843 × 151 ft (3000 × 46 m), paved

Time
Time Zone:UTC+3
Local Time:

Weather
METAR:HTDA 180400Z 36006KT 9999 SCT014 BKN070 27/25 Q1012 RERA NOSIG
TAF:HTDA 172300Z 1800/1906 00000KT 9999 SCT015
BECMG 1806/1809 03010KT BKN022 PROB30
TEMPO 1810/1814 RA
BECMG 1816/1819 SCT019

Related Locations
Nearby:
Farthest:NHV: 11352 mi / 18270 km
Nuku Hiva, Marquesas Islands, PF

Find:

   beyond  
but within

Other Information
Maps:
NOTAMs:
Links:
Sources:

  
flag of Tanzania   

Sectional Chart

Flight Planning
at skyvector.com

Satellite Image

Google Maps Satellite view

 

Copyright © 2004-2017 Karl L. Swartz. All rights reserved.
The Great Circle Mapper name and logo are trademarks of the Great Circle Mapper.
All other trademarks mentioned herein belong to their respective owners.
Please see credits for attibutions and further copyright information.

  Follow gcmap on Facebook Follow gcmap on Twitter Follow gcmap on Google+ GCmap on LinkedIn

hCard Microformat

Geo Microformat